Location: Monroe
(41.9160°N, 83.3980°W)
Time: 00:25:09
(UTC-05:00)

Amateur Radio Satellites - All Passes

Search period start: 25 February 2017 23:55
Search period end: 26 February 2017 23:55
Location: Monroe, 41.9160°N, 83.3980°W

Satellite Date Start Highest point End Downlink Frequencies (MHz)
Time Altitude Azimuth
VELOX 1 25 Feb 23:55:37 23:59:59 85° 76° (ENE) 00:04:24 145.980
BUGSAT 1 25 Feb 23:56:47 23:58:17 12° 90° (E) 23:59:47 437.445
UKube-1 25 Feb 23:57:17 00:00:57 28° 68° (ENE) 00:04:38 .
SPROUT 25 Feb 23:59:49 00:04:04 75° 74° (ENE) 00:08:20 437.525
O/OREOS (USA 219) 26 Feb 00:02:12 00:06:06 29° 301° (WNW) 00:10:02 437.305
50 SAT 26 Feb 00:06:41 00:10:11 80° 76° (ENE) 00:13:41 437.505
DUCHIFAT 1 26 Feb 00:35:01 00:39:19 87° 284° (WNW) 00:43:34 145.980
AIST 2D 26 Feb 00:39:19 00:42:25 28° 289° (WNW) 00:45:30 435.315
PCSat 26 Feb 00:42:50 00:47:42 32° 50° (NE) 00:52:31 145.827
EO-79 26 Feb 00:46:35 00:50:46 54° 287° (WNW) 00:54:57 145.935-145.965
RS-15 26 Feb 00:50:15 01:01:34 38° 34° (NE) 01:12:31 29.354- 29.394
NANOSAT C BR1 26 Feb 01:03:23 01:07:22 38° 289° (WNW) 01:11:19 145.865
NO-84 26 Feb 01:04:31 01:08:21 36° 229° (SW) 01:12:22 435.350 FM
POLYITAN 1 26 Feb 01:04:32 01:08:26 35° 290° (WNW) 01:12:19 437.675
QB50P2 26 Feb 01:07:38 01:11:24 30° 291° (WNW) 01:15:08 145.880/145.840
DX 1 26 Feb 01:22:32 01:26:04 24° 265° (W) 01:29:38 434.975-435.025
FO-29 26 Feb 01:29:07 01:33:44 18° 307° (NW) 01:38:09 435.910
BUGSAT 1 26 Feb 01:29:49 01:34:01 61° 286° (WNW) 01:38:13 437.445
UKube-1 26 Feb 01:33:21 01:36:56 26° 264° (W) 01:40:32 .
Oscar 19 26 Feb 01:38:13 01:43:04 41° 98° (E) 01:47:54 437.125/150
ITUPSAT 1 26 Feb 01:49:15 01:53:30 32° 68° (ENE) 01:57:47 437.325
BEESAT 26 Feb 01:55:15 01:59:39 38° 69° (ENE) 02:04:04 436.000
MOZHAYETS 4 26 Feb 02:11:45 02:15:04 20° 65° (ENE) 02:18:24
PCSat 26 Feb 02:26:07 02:31:10 40° 248° (WSW) 02:36:12 145.827
Gurwin Techsat 1B 26 Feb 02:27:54 02:33:13 68° 102° (ESE) 02:38:30 435.225
AO-7 26 Feb 02:47:40 02:53:17 19° 91° (E) 02:58:51 .
RS-15 26 Feb 03:03:09 03:15:31 82° 241° (WSW) 03:27:18 29.354- 29.394
CUBESAT XI-V 26 Feb 03:13:53 03:16:20 14° 62° (ENE) 03:18:49 437.345
Oscar 19 26 Feb 03:18:03 03:22:09 25° 295° (WNW) 03:26:15 437.125/150
AO-85 26 Feb 03:23:11 03:25:44 15° 111° (ESE) 03:28:12 145.980
ITUPSAT 1 26 Feb 03:27:13 03:31:18 28° 264° (W) 03:35:26 437.325
BEESAT 26 Feb 03:33:41 03:37:30 24° 266° (W) 03:41:20 436.000
MOZHAYETS 4 26 Feb 03:47:28 03:51:54 45° 261° (W) 03:56:22
ITAMSAT 1 26 Feb 03:52:20 03:57:36 75° 103° (ESE) 04:02:48 435.822/435.867
Gurwin Techsat 1B 26 Feb 04:09:14 04:12:35 17° 299° (WNW) 04:15:56 435.225
KKS-1 26 Feb 04:12:58 04:17:23 88° 256° (WSW) 04:21:51 437.445
AO-7 26 Feb 04:38:38 04:47:00 87° 289° (WNW) 04:55:17 .
STARS 26 Feb 04:44:58 04:49:19 89° 255° (WSW) 04:53:44 437.465
CUBESAT XI-V 26 Feb 04:48:33 04:53:10 65° 259° (W) 04:57:48 437.345
M-CUBED/EXP-1 PRIME 26 Feb 04:58:03 05:01:18 74° 252° (WSW) 05:04:34 437.505
AO-85 26 Feb 05:01:16 05:05:46 60° 305° (NW) 05:09:57 145.980
RS-15 26 Feb 05:18:01 05:25:56 21° 263° (W) 05:33:42 29.354- 29.394
ITAMSAT 1 26 Feb 05:33:27 05:36:25 15° 300° (WNW) 05:39:22 435.822/435.867
STRAND 1 26 Feb 05:34:41 05:37:05 13° 59° (ENE) 05:39:29 437.568
XW-2F 26 Feb 05:42:10 05:43:36 12° 90° (E) 05:45:01 145.980 - 146.000
BEESAT 3 26 Feb 05:43:12 05:46:16 22° 113° (ESE) 05:49:22 437.485
XW-2D 26 Feb 05:46:40 05:48:49 14° 92° (E) 05:50:57 145.860 - 145.880
XW-2B 26 Feb 05:51:31 05:53:56 16° 92° (E) 05:56:19 145.730 - 145.750
XW-2C 26 Feb 05:59:48 06:02:42 20° 94° (E) 06:05:33 145.795 - 145.815
NUDT-PHONESAT 26 Feb 06:08:46 06:11:40 21° 94° (E) 06:14:32 437.300
SO-50 26 Feb 06:09:43 06:13:25 24° 44° (NE) 06:17:05 436.795
LilacSat-2 26 Feb 06:17:02 06:20:34 34° 97° (E) 06:24:03 437.200
BEESAT 2 26 Feb 06:23:04 06:26:18 25° 113° (ESE) 06:29:35 435.950
AO-7 26 Feb 06:32:52 06:38:39 21° 310° (NW) 06:44:25 .
CUTE-I 26 Feb 06:45:24 06:50:44 60° 101° (E) 06:56:02 437.470
DOVE 4 26 Feb 06:48:10 06:52:55 86° 103° (ESE) 06:57:56 437.250
CUTE 1.7 + AOD 2 26 Feb 07:03:12 07:05:05 13° 90° (E) 07:06:59 437.475
ISS 26 Feb 07:06:29 07:08:36 16° 132° (SE) 07:10:43 437.550
KAITUO 1B 26 Feb 07:08:04 07:11:50 68° 284° (WNW) 07:15:32 145.475/437.950
XW-2A 26 Feb 07:08:32 07:11:03 19° 94° (E) 07:13:33 145.665 - 145.685
STRAND 1 26 Feb 07:10:23 07:15:32 84° 257° (WSW) 07:20:44 437.568
XW-2F 26 Feb 07:14:21 07:18:02 47° 287° (WNW) 07:21:40 145.980 - 146.000
XW-2D 26 Feb 07:19:37 07:23:12 38° 288° (WNW) 07:26:44 145.860 - 145.880
BEESAT 3 26 Feb 07:20:07 07:23:41 33° 310° (NW) 07:27:19 437.485
XW-2B 26 Feb 07:24:45 07:28:15 35° 288° (WNW) 07:31:43 145.730 - 145.750
Tancredo 1 26 Feb 07:29:12 07:32:00 27° 136° (SE) 07:34:49 437.200
CUBEBUG 2 26 Feb 07:30:14 07:32:34 13° 89° (E) 07:34:53 437.445
XW-2C 26 Feb 07:33:37 07:36:54 27° 290° (WNW) 07:40:09 145.795 - 145.815
NUDT-PHONESAT 26 Feb 07:42:24 07:45:34 26° 290° (WNW) 07:48:43 437.300
AAUSAT CUBESAT 2 26 Feb 07:45:43 07:47:16 12° 90° (E) 07:48:49 437.432
SO-50 26 Feb 07:49:47 07:54:03 44° 243° (WSW) 07:58:17 436.795
LilacSat-2 26 Feb 07:52:00 07:54:35 17° 293° (WNW) 07:57:09 437.200
SEEDS 26 Feb 07:57:15 08:01:04 33° 97° (E) 08:04:50 437.485
BEESAT 2 26 Feb 08:00:24 08:03:57 31° 311° (NW) 08:07:33 435.950
UWE-3 26 Feb 08:04:56 08:08:17 19° 92° (E) 08:11:34 435.000/436.395/437.385
HO-68 26 Feb 08:10:02 08:17:10 66° 103° (ESE) 08:24:15 435.675
FO-29 26 Feb 08:14:23 08:16:43 12° 48° (NE) 08:19:05 435.910
ZACube-1 26 Feb 08:24:06 08:27:11 18° 91° (E) 08:30:13 437.345
CUTE-I 26 Feb 08:26:32 08:30:17 20° 299° (WNW) 08:34:02 437.470
DOVE 4 26 Feb 08:28:22 08:30:00 12° 298° (WNW) 08:31:38 437.250
O/OREOS (USA 219) 26 Feb 08:31:46 08:36:18 59° 65° (ENE) 08:40:49 437.305
CUTE 1.7 + AOD 2 26 Feb 08:37:08 08:41:16 54° 286° (WNW) 08:45:20 437.475
XW-2A 26 Feb 08:40:57 08:43:48 24° 290° (WNW) 08:46:38 145.665 - 145.685
ISS 26 Feb 08:41:28 08:44:45 62° 329° (NNW) 08:48:01 437.550
PRISM 26 Feb 08:48:48 08:52:40 44° 72° (ENE) 08:56:33 437.425
CUBEBUG 2 26 Feb 09:04:52 09:09:36 65° 286° (WNW) 09:14:16 437.445
Tancredo 1 26 Feb 09:05:07 09:08:12 38° 333° (NNW) 09:11:16 437.200
DELFI C3 26 Feb 09:10:09 09:11:35 12° 90° (E) 09:13:00 145.870
AO-73 26 Feb 09:11:01 09:15:27 50° 99° (E) 09:19:46 145.935
UNISAT 6 26 Feb 09:16:11 09:20:20 37° 70° (ENE) 09:24:35 437.425
TIGRISAT 26 Feb 09:16:16 09:20:20 35° 69° (ENE) 09:24:31 435.000
Oscar 11 26 Feb 09:16:34 09:20:47 49° 99° (E) 09:24:57 .
AAUSAT CUBESAT 2 26 Feb 09:19:03 09:23:04 55° 286° (WNW) 09:27:04 437.432
SEEDS 26 Feb 09:33:26 09:36:32 21° 293° (WNW) 09:39:37 437.485
UWE-3 26 Feb 09:40:29 09:44:56 43° 288° (WNW) 09:49:16 435.000/436.395/437.385
FO-29 26 Feb 09:52:58 09:59:54 53° 68° (ENE) 10:07:25 435.910
YUBILEINY 26 Feb 09:53:39 10:01:33 38° 85° (E) 10:09:23 435.215
HO-68 26 Feb 09:58:41 10:04:19 26° 302° (WNW) 10:09:57 435.675
ZACube-1 26 Feb 09:59:20 10:03:41 45° 288° (WNW) 10:07:56 437.345
EO-79 26 Feb 10:06:29 10:07:47 11° 61° (ENE) 10:09:06 145.935-145.965
O/OREOS (USA 219) 26 Feb 10:12:50 10:15:11 14° 261° (W) 10:17:30 437.305
ISS 26 Feb 10:19:18 10:21:42 18° 347° (NNW) 10:24:07 437.550
NANOSAT C BR1 26 Feb 10:21:33 10:23:59 15° 64° (ENE) 10:26:27 145.865
POLYITAN 1 26 Feb 10:22:41 10:25:27 17° 65° (ENE) 10:28:14 437.675
QB50P2 26 Feb 10:25:22 10:28:25 19° 66° (ENE) 10:31:29 145.880/145.840
PRISM 26 Feb 10:25:53 10:28:11 15° 268° (W) 10:30:29 437.425
DELFI C3 26 Feb 10:42:51 10:46:40 51° 287° (WNW) 10:50:28 145.870
Tancredo 1 26 Feb 10:43:02 10:45:08 16° 352° (N) 10:47:13 437.200
AO-73 26 Feb 10:48:20 10:51:14 17° 296° (WNW) 10:54:07 145.935
TIGRISAT 26 Feb 10:53:28 10:57:05 23° 266° (W) 11:00:46 435.000
UNISAT 6 26 Feb 10:53:39 10:57:08 22° 267° (W) 11:00:42 437.425
Oscar 11 26 Feb 10:53:52 10:56:30 16° 296° (WNW) 10:59:07 .
LO-87 26 Feb 11:07:11 11:10:29 33° 98° (E) 11:13:46 145.935 - 145.965
AIST 2D 26 Feb 11:13:14 11:16:47 80° 256° (WSW) 11:20:23 435.315
ESTCUBE 1 26 Feb 11:24:51 11:28:44 28° 96° (E) 11:32:35 437.505/2401.250
DUCHIFAT 1 26 Feb 11:26:40 11:30:50 70° 75° (ENE) 11:35:03 145.980
EO-79 26 Feb 11:38:44 11:42:57 72° 258° (WSW) 11:47:12 145.935-145.965
FO-29 26 Feb 11:38:48 11:45:08 33° 268° (W) 11:51:58 435.910
VELOX 1 26 Feb 11:46:27 11:49:06 16° 92° (E) 11:51:45 145.980
SPROUT 26 Feb 11:47:00 11:48:53 13° 90° (E) 11:50:45 437.525
YUBILEINY 26 Feb 11:49:41 11:58:06 48° 285° (WNW) 12:06:33 435.215
AO-85 26 Feb 11:53:02 11:55:17 15° 41° (NE) 11:57:33 145.980
NANOSAT C BR1 26 Feb 11:55:12 11:59:17 50° 260° (W) 12:03:25 145.865
POLYITAN 1 26 Feb 11:56:50 12:00:53 44° 261° (W) 12:04:59 437.675
ISS 26 Feb 11:56:56 11:59:06 16° 8° (N) 12:01:16 437.550
QB50P2 26 Feb 12:00:00 12:03:56 38° 262° (W) 12:07:56 145.880/145.840
Gurwin Techsat 1B 26 Feb 12:12:18 12:15:21 16° 60° (ENE) 12:18:23 435.225
BUGSAT 1 26 Feb 12:19:22 12:23:25 87° 259° (W) 12:27:34 437.445
Tancredo 1 26 Feb 12:20:01 12:22:20 18° 13° (NNE) 12:24:38 437.200
LO-87 26 Feb 12:41:28 12:43:40 16° 293° (WNW) 12:45:53 145.935 - 145.965
Oscar 19 26 Feb 12:55:14 13:00:18 64° 73° (ENE) 13:05:24 437.125/150
ESTCUBE 1 26 Feb 13:01:39 13:05:27 28° 292° (WNW) 13:09:15 437.505/2401.250
50 SAT 26 Feb 13:04:05 13:07:34 85° 103° (ESE) 13:11:02 437.505
DX 1 26 Feb 13:09:13 13:13:29 52° 100° (E) 13:17:44 434.975-435.025
UKube-1 26 Feb 13:19:03 13:23:14 48° 100° (E) 13:27:23 .
SPROUT 26 Feb 13:20:55 13:25:09 58° 287° (WNW) 13:29:23 437.525
VELOX 1 26 Feb 13:21:33 13:25:49 49° 288° (WNW) 13:30:05 145.980
AO-85 26 Feb 13:32:12 13:36:04 63° 241° (WSW) 13:40:00 145.980
ISS 26 Feb 13:33:07 13:36:15 38° 28° (NNE) 13:39:21 437.550
ITAMSAT 1 26 Feb 13:33:48 13:36:57 16° 60° (ENE) 13:40:06 435.822/435.867
AO-7 26 Feb 13:46:48 13:53:50 32° 56° (ENE) 14:00:51 .
Gurwin Techsat 1B 26 Feb 13:49:20 13:54:38 75° 257° (WSW) 13:59:59 435.225
Tancredo 1 26 Feb 13:55:54 13:59:07 60° 32° (NNE) 14:02:17 437.200
BEESAT 3 26 Feb 13:59:22 14:02:14 18° 44° (NE) 14:05:06 437.485
Oscar 19 26 Feb 14:37:01 14:40:03 16° 269° (W) 14:43:05 437.125/150
BEESAT 2 26 Feb 14:40:09 14:43:14 20° 45° (NE) 14:46:17 435.950
DX 1 26 Feb 14:46:41 14:49:15 16° 297° (WNW) 14:51:48 434.975-435.025
UKube-1 26 Feb 14:56:10 14:58:53 17° 296° (WNW) 15:01:35 .
ISS 26 Feb 15:09:45 15:12:37 27° 224° (SW) 15:15:27 437.550
ITAMSAT 1 26 Feb 15:10:38 15:15:49 70° 257° (WSW) 15:21:03 435.822/435.867
RS-15 26 Feb 15:21:32 15:26:54 14° 94° (E) 15:32:17 29.354- 29.394
PCSat 26 Feb 15:25:34 15:29:52 25° 107° (ESE) 15:34:11 145.827
ITUPSAT 1 26 Feb 15:26:19 15:31:09 73° 102° (ESE) 15:35:54 437.325
BEESAT 26 Feb 15:32:04 15:36:53 85° 104° (ESE) 15:41:40 436.000
Tancredo 1 26 Feb 15:33:02 15:35:03 16° 228° (SW) 15:37:04 437.200
BEESAT 3 26 Feb 15:36:13 15:40:07 50° 242° (WSW) 15:43:59 437.485
AO-7 26 Feb 15:37:46 15:46:03 65° 256° (WSW) 15:54:22 .
MOZHAYETS 4 26 Feb 15:41:58 15:46:18 40° 98° (E) 15:50:36
KKS-1 26 Feb 16:04:32 16:07:28 17° 92° (E) 16:10:25 437.445
BEESAT 2 26 Feb 16:17:20 16:21:13 44° 242° (WSW) 16:25:03 435.950
NO-84 26 Feb 16:23:43 16:26:23 26° 129° (SE) 16:29:15 435.350 FM
CUTE-I 26 Feb 16:30:48 16:33:34 14° 59° (ENE) 16:36:20 437.470
STARS 26 Feb 16:35:03 16:37:49 16° 92° (E) 16:40:35 437.465
XW-2C 26 Feb 16:42:59 16:44:24 12° 64° (ENE) 16:45:49 145.795 - 145.815
CUBESAT XI-V 26 Feb 16:44:58 16:48:59 29° 96° (E) 16:53:00 437.345
NUDT-PHONESAT 26 Feb 16:50:21 16:51:31 11° 64° (ENE) 16:52:42 437.300
LilacSat-2 26 Feb 16:59:44 17:02:31 19° 67° (ENE) 17:05:18 437.200
ITUPSAT 1 26 Feb 17:05:59 17:08:21 14° 300° (WNW) 17:10:43 437.325
PCSat 26 Feb 17:07:42 17:12:56 48° 305° (NW) 17:18:12 145.827
BEESAT 26 Feb 17:12:14 17:13:57 12° 301° (WNW) 17:15:40 436.000
MOZHAYETS 4 26 Feb 17:19:44 17:23:12 21° 294° (WNW) 17:26:37
RS-15 26 Feb 17:25:03 17:36:45 67° 115° (ESE) 17:48:53 29.354- 29.394
AO-7 26 Feb 17:38:27 17:40:20 11° 274° (W) 17:42:13 .
KKS-1 26 Feb 17:39:58 17:44:15 45° 289° (WNW) 17:48:31 437.445
KAITUO 1B 26 Feb 17:48:00 17:51:43 54° 75° (ENE) 17:55:28 145.475/437.950
DOVE 4 26 Feb 17:54:22 17:58:30 87° 71° (ENE) 18:02:43 437.250
XW-2F 26 Feb 17:54:57 17:58:47 81° 76° (ENE) 18:02:39 145.980 - 146.000
CUTE 1.7 + AOD 2 26 Feb 17:57:33 17:58:30 11° 62° (ENE) 17:59:28 437.475
XW-2D 26 Feb 18:00:27 18:04:18 82° 257° (WSW) 18:08:11 145.860 - 145.880
NO-84 26 Feb 18:00:54 18:03:55 33° 329° (NNW) 18:07:12 435.350 FM
XW-2B 26 Feb 18:05:33 18:09:23 73° 259° (WSW) 18:13:16 145.730 - 145.750
CUTE-I 26 Feb 18:07:32 18:12:52 83° 256° (WSW) 18:18:16 437.470
M-CUBED/EXP-1 PRIME 26 Feb 18:09:15 18:13:05 71° 107° (ESE) 18:17:13 437.505
STARS 26 Feb 18:10:08 18:14:25 48° 288° (WNW) 18:18:40 437.465
XW-2C 26 Feb 18:14:20 18:18:07 55° 260° (W) 18:21:56 145.795 - 145.815
NUDT-PHONESAT 26 Feb 18:21:16 18:24:57 55° 260° (W) 18:28:42 437.300
CUBESAT XI-V 26 Feb 18:22:23 18:26:17 28° 292° (WNW) 18:30:09 437.345
CUBEBUG 2 26 Feb 18:29:32 18:31:14 12° 61° (ENE) 18:32:58 437.445
LilacSat-2 26 Feb 18:33:06 18:36:34 31° 263° (W) 18:40:05 437.200
HO-68 26 Feb 18:38:42 18:45:33 51° 67° (ENE) 18:52:25 435.675
SEEDS 26 Feb 18:49:17 18:52:46 25° 69° (ENE) 18:56:14 437.485
PCSat 26 Feb 18:56:38 18:57:42 11° 327° (NNW) 18:58:48 145.827
UWE-3 26 Feb 19:02:37 19:05:27 17° 64° (ENE) 19:08:22 435.000/436.395/437.385
XW-2A 26 Feb 19:11:49 19:15:11 71° 258° (WSW) 19:18:38 145.665 - 145.685
ZACube-1 26 Feb 19:20:37 19:23:16 16° 63° (ENE) 19:25:56 437.345
STRAND 1 26 Feb 19:20:52 19:25:29 32° 96° (E) 19:30:03 437.568
KAITUO 1B 26 Feb 19:25:21 19:26:05 10° 270° (W) 19:26:48 145.475/437.950
CUTE 1.7 + AOD 2 26 Feb 19:29:26 19:33:42 77° 259° (WSW) 19:37:59 437.475
RS-15 26 Feb 19:38:34 19:49:59 45° 320° (NW) 20:01:46 29.354- 29.394
NO-84 26 Feb 19:40:56 19:42:34 13° 350° (N) 19:44:16 435.350 FM
M-CUBED/EXP-1 PRIME 26 Feb 19:46:12 19:47:08 11° 301° (WNW) 19:48:04 437.505
CUBEBUG 2 26 Feb 20:02:42 20:07:09 77° 258° (WSW) 20:11:47 437.445
YUBILEINY 26 Feb 20:03:44 20:09:32 19° 61° (ENE) 20:15:15 435.215
AO-73 26 Feb 20:06:21 20:10:32 40° 71° (ENE) 20:14:48 145.935
AAUSAT CUBESAT 2 26 Feb 20:08:50 20:12:59 85° 257° (WSW) 20:17:10 437.432
Oscar 11 26 Feb 20:11:23 20:15:26 39° 71° (ENE) 20:19:30 .
SEEDS 26 Feb 20:24:42 20:28:21 28° 265° (W) 20:32:00 437.485
HO-68 26 Feb 20:27:14 20:33:28 32° 264° (W) 20:39:46 435.675
UWE-3 26 Feb 20:37:06 20:41:27 52° 261° (W) 20:45:58 435.000/436.395/437.385
ZACube-1 26 Feb 20:54:39 20:59:02 56° 260° (W) 21:03:32 437.345
STRAND 1 26 Feb 21:00:04 21:04:36 32° 293° (WNW) 21:09:06 437.568
NO-84 26 Feb 21:19:42 21:21:38 13° 12° (NNE) 21:23:38 435.350 FM
DELFI C3 26 Feb 21:28:04 21:32:02 89° 45° (NE) 21:36:00 145.870
AO-73 26 Feb 21:43:40 21:46:55 20° 268° (W) 21:50:13 145.935
LO-87 26 Feb 21:44:48 21:46:53 15° 66° (ENE) 21:48:57 145.935 - 145.965
Oscar 11 26 Feb 21:48:38 21:51:43 19° 267° (W) 21:54:49 .
RS-15 26 Feb 21:57:23 22:06:55 25° 353° (N) 22:16:27 29.354- 29.394
YUBILEINY 26 Feb 21:58:54 22:07:41 87° 82° (E) 22:16:23 435.215
SO-50 26 Feb 22:03:39 22:08:12 53° 119° (ESE) 22:12:43 436.795
PRISM 26 Feb 22:04:34 22:08:39 70° 103° (ESE) 22:12:42 437.425
ESTCUBE 1 26 Feb 22:24:40 22:28:29 28° 68° (ENE) 22:32:19 437.505/2401.250
SPROUT 26 Feb 22:41:58 22:43:04 11° 61° (ENE) 22:44:09 437.525
TIGRISAT 26 Feb 22:43:20 22:48:03 73° 102° (ESE) 22:52:41 435.000
UNISAT 6 26 Feb 22:43:32 22:48:16 79° 102° (ESE) 22:52:54 437.425
O/OREOS (USA 219) 26 Feb 22:44:14 22:48:39 65° 109° (ESE) 22:53:07 437.305
VELOX 1 26 Feb 22:44:28 22:47:01 15° 63° (ENE) 22:49:35 145.980
FO-29 26 Feb 22:47:40 22:54:55 46° 96° (E) 23:01:26 435.910
NO-84 26 Feb 22:56:36 23:00:16 34° 31° (NNE) 23:04:10 435.350 FM
DUCHIFAT 1 26 Feb 23:12:53 23:13:53 11° 89° (E) 23:14:54 145.980
LO-87 26 Feb 23:16:50 23:20:03 33° 262° (W) 23:23:18 145.935 - 145.965
EO-79 26 Feb 23:23:55 23:26:52 18° 93° (E) 23:29:49 145.935-145.965
50 SAT 26 Feb 23:38:25 23:41:33 32° 71° (ENE) 23:44:42 437.505
NANOSAT C BR1 26 Feb 23:39:25 23:42:55 24° 95° (E) 23:46:25 145.865
POLYITAN 1 26 Feb 23:41:23 23:45:06 28° 96° (E) 23:48:47 437.675
PRISM 26 Feb 23:42:26 23:43:21 11° 299° (WNW) 23:44:16 437.425
QB50P2 26 Feb 23:44:18 23:48:11 32° 97° (E) 23:52:01 145.880/145.840
SO-50 26 Feb 23:45:19 23:48:58 22° 317° (NW) 23:52:35 436.795
